TimeCST,TemperatureF,Dew PointF,Humidity,Sea Level PressureIn,VisibilityMPH,Wind Direction,Wind SpeedMPH,Gust SpeedMPH,PrecipitationIn,Events,Conditions,WindDirDegrees,DateUTC
12:53 AM,41.0,28.9,62,30.33,10.0,Calm,Calm,-,N/A,,Clear,0,2013-02-02 06:53:00
1:53 AM,39.9,30.0,68,30.34,10.0,Calm,Calm,-,N/A,,Clear,0,2013-02-02 07:53:00
3:53 AM,39.0,28.0,65,30.32,10.0,Calm,Calm,-,N/A,,Clear,0,2013-02-02 09:53:00
4:53 AM,37.9,26.1,62,30.32,10.0,Calm,Calm,-,N/A,,Clear,0,2013-02-02 10:53:00
5:53 AM,37.0,26.1,65,30.31,10.0,Calm,Calm,-,N/A,,Clear,0,2013-02-02 11:53:00
6:53 AM,36.0,27.0,70,30.31,10.0,SSE,4.6,-,0.00,,Clear,150,2013-02-02 12:53:00
7:53 AM,39.9,27.0,60,30.32,10.0,SSE,5.8,-,N/A,,Clear,160,2013-02-02 13:53:00
8:53 AM,46.9,32.0,56,30.31,10.0,SSE,6.9,-,N/A,,Clear,160,2013-02-02 14:53:00
9:53 AM,54.0,37.9,55,30.30,10.0,South,9.2,-,N/A,,Clear,170,2013-02-02 15:53:00
10:53 AM,59.0,41.0,51,30.29,10.0,South,8.1,-,N/A,,Clear,170,2013-02-02 16:53:00
11:53 AM,63.0,44.1,50,30.26,10.0,SSW,11.5,-,N/A,,Clear,210,2013-02-02 17:53:00
12:53 PM,64.9,45.0,48,30.22,10.0,Variable,6.9,21.9,N/A,,Clear,0,2013-02-02 18:53:00
1:53 PM,66.9,45.0,45,30.19,10.0,WSW,10.4,20.7,N/A,,Partly Cloudy,240,2013-02-02 19:53:00
2:53 PM,68.0,44.1,42,30.17,10.0,SW,10.4,-,N/A,,Clear,220,2013-02-02 20:53:00
3:53 PM,68.0,45.0,43,30.16,10.0,WSW,11.5,-,N/A,,Clear,240,2013-02-02 21:53:00
4:53 PM,66.0,44.1,45,30.17,10.0,WSW,5.8,-,N/A,,Clear,240,2013-02-02 22:53:00
5:53 PM,63.0,45.0,52,30.17,10.0,Calm,Calm,-,N/A,,Mostly Cloudy,0,2013-02-02 23:53:00
6:53 PM,57.9,48.0,70,30.19,10.0,Calm,Calm,-,N/A,,Mostly Cloudy,0,2013-02-03 00:53:00
7:53 PM,59.0,46.0,62,30.19,10.0,Calm,Calm,-,N/A,,Overcast,0,2013-02-03 01:53:00
8:53 PM,59.0,48.0,67,30.20,10.0,Calm,Calm,-,N/A,,Mostly Cloudy,0,2013-02-03 02:53:00
9:53 PM,55.9,51.1,84,30.22,3.0,NW,9.2,-,0.04,Rain,Heavy Rain,320,2013-02-03 03:53:00
10:53 PM,53.1,52.0,96,30.22,10.0,North,4.6,-,0.01,,Scattered Clouds,360,2013-02-03 04:53:00
11:53 PM,53.1,50.0,89,30.23,10.0,North,3.5,-,N/A,,Mostly Cloudy,360,2013-02-03 05:53:00